Regional Weather Roundup
Issued by NWS

Home | Current Version | Previous Version | Graphics & Text | Print | Product List | Glossary On
Versions: 1 2 3 4 5 6 7 8 9 10 11 12 13 14 15 16 17 18 19 20 21 22 23 24 25 26 27 28
000
ASUS45 KTFX 221110
RWRMT
MONTANA REGIONAL WEATHER ROUNDUP
NATIONAL WEATHER SERVICE GREAT FALLS MT
400 AM MST WED FEB 22 2017

NOTE: "FAIR" INDICATES FEW OR NO CLOUDS BELOW 12000 FEET WITH NO
SIGNIFICANT WEATHER AND/OR OBSTRUCTIONS TO VISIBILITY.

MTZ001>007-043-221200-
WEST OF THE DIVIDE

CITY           SKY/WX    TMP DP  RH WIND       PRES   REMARKS
KALISPELL      CLOUDY    33  31  92 S3        29.90R
MISSOULA       CLOUDY    33  31  92 S5        29.96R
BUTTE          LGT SNOW  30  23  75 N6        29.86R WCI  24
MULLAN PASS    LGT SNOW  24  22  91 VRB3      29.85S VSB 3/4
ANACONDA         N/A     30  23  74 SW3       29.88R
DEER LODGE       N/A     30  27  86 NE6       29.90R WCI  24
EUREKA           N/A     28  27  93 CALM      29.90S
HAMILTON         N/A     36  28  75 S6        29.94R WCI  31
LIBBY            N/A     32  32 100 CALM      29.93R VSB 3/4
PLAINS           N/A     32  27  82 CALM      29.96R
RONAN            N/A     33  31  93 CALM      29.96S
$$

MTZ008-052>055-221200-
SOUTHWEST MONTANA

CITY           SKY/WX    TMP DP  RH WIND       PRES   REMARKS
BOZEMAN        CLOUDY    35  26  69 SW9       29.85F WCI  28
DILLON         CLOUDY    31  19  61 W10       29.87R WCI  22
W YELLOWSTONE  CLOUDY    25  21  86 SW7       29.88F WCI  17
ENNIS          CLOUDY    34  16  47 S12       29.91S WCI  25
THREE FORKS      N/A     36 -50   2 W8        29.86S WCI  30
TWIN BRIDGES     N/A     33  22  64 CALM      29.89R
$$

MTZ009-010-012-014-046-048-049-054-221200-
EAST SLOPES AND CENTRAL MONTANA

CITY           SKY/WX    TMP DP  RH WIND       PRES   REMARKS
CUT BANK       CLOUDY    27  24  89 CALM      29.80R
GREAT FALLS    CLOUDY    31  30  96 SW5       29.82S
MALMSTROM AFB  CLOUDY    32  32 100 SW8       29.83S WCI  25
HELENA         CLOUDY    37  26  64 W12G23    29.85R WCI  29
AUGUSTA        MOCLDY    27  28 100 W3        29.80R
BOWMANS CRNR   MOCLDY    28  28 100 S8        29.80R WCI  20
CHOTEAU          N/A     28  28 100 SW5       29.83R
CONRAD           N/A     28  28 100 N2        29.85R
POWER          MOCLDY    29  29 100 SW5       29.81R FOG
RAYNESFORD     FLURRIES  32  31  96 W6        29.82R WCI  26
ULM            CLOUDY    32  33 100 MISG      29.83R
$$

MTZ011-013-016-021-045-047-050-051-221200-
NORTH CENTRAL MONTANA

CITY           SKY/WX    TMP DP  RH WIND       PRES   REMARKS
HAVRE          LGT SNOW  32  32 100 NE5       29.84R FOG
LEWISTOWN      LGT SNOW  30  30 100 W8        29.79R FOG     WCI  22
N BAR RANCH    CLOUDY    32  28  86 NW21      29.77R WCI  20
CHINOOK          N/A     32  32 100 CALM      29.85R
DENTON         FLURRIES  31  31  99 W16G28    29.77R WCI  20
FORT BENTON      N/A     32  32 100 N3        29.85R
GEYSER         MOCLDY    31  30  94 W16       29.79R WCI  20
GRASS RANGE    CLOUDY    33  30  91 W15       29.75R WCI  22
JUDITH GAP     LGT SNOW  29  29  97 N9        29.78R WCI  21
ROY            LGT SNOW  31  31  99 MISG      29.77R FOG
STANFORD       MOCLDY    31  29  96 NW10      29.79R WCI  22
WINIFRED       LGT SNOW  32 N/A N/A W10       29.79R VSB 3/4 WCI  24
$$

MTZ017>020-022>027-061-062-221200-
NORTHEAST MONTANA

CITY           SKY/WX    TMP DP  RH WIND       PRES   REMARKS
GLASGOW        LGT SNOW  31  30  96 NW7       29.80R FOG     WCI  24
JORDAN           N/A     32  30  92 N7        29.75R WCI  26
SIDNEY         LGT SNOW  32  31  96 N9        29.76R FOG     WCI  24
WOLF POINT     LGT SNOW  33  30  88 NE10      29.80R FOG     WCI  25
PLENTYWOOD       N/A     30  27  86 N14       29.79R WCI  20
POPLAR           N/A     32  30  93 N8        29.80R WCI  25
SCOBEY           N/A     29  22  75 N10       29.78R WCI  20
$$

MTZ028>42-056>058-221200-
SOUTHCENTRAL AND SOUTHEAST MONTANA

CITY           SKY/WX    TMP DP  RH WIND       PRES   REMARKS
BAKER          FOG       34  34 100 NW3       29.69S VSB 1/4
BILLINGS       CLOUDY    42  23  46 NW17G29   29.76R
LIVINGSTON     FLURRIES  33  26  75 W25       29.80R WCI  20
MILES CITY     MOCLDY    35  32  88 SW7       29.71R WCI  29
BIG TIMBER     MOCLDY    34  25  69 W16G25    29.82R WCI  23
EKALAKA          N/A     35  31  86 SW6       29.69R WCI  30
FORSYTH          N/A     36  36 100 CALM      29.71S
HARLOWTON      CLOUDY    34  25  68 W22       29.77R WCI  23
LAUREL           N/A     42  21  43 W16       29.78R
$$

REGIONAL REPORTS...DAKOTAS

CITY           SKY/WX    TMP DP  RH WIND       PRES   REMARKS
WILLISTON      LGT SNOW  33  31  92 N10       29.77R FOG     WCI  25
MINOT          LGT SNOW  33  30  88 N13       29.74R FOG     WCI  24
DICKINSON      LGT RAIN  33  32  96 NE10      29.66S FOG     WCI  25
BEACH            N/A    N/A N/A N/A MISG        N/A
CROSBY         CLOUDY    32  32 100 N12       29.81R WCI  23
TIOGA          LGT SNOW  30  30 100 NE15      29.76R WCI  19
WATFORD CITY   LGT SNOW  32  32 100 N6        29.75R WCI  26
BISMARCK       MOCLDY    34  33  96 W6        29.70R WCI  29
GRAND FORKS    FRZ RAIN  33  29  85 NW9       29.69R FOG     WCI  25
FARGO          FOG       33  33 100 N9        29.66R VSB 1/4 WCI  25
BUFFALO SD       N/A     38  36  92 NE8       29.60F
RAPID CITY     MOCLDY    46  34  62 SW13      29.66F
$$

REGIONAL REPORTS...WYOMING/IDAHO/WASHINGTON

CITY           SKY/WX    TMP DP  RH WIND       PRES   REMARKS
GILLETTE       CLOUDY    39  26  59 SW10      29.74R
SHERIDAN       CLOUDY    40  17  39 VRB7      29.75R
BUFFALO WY     CLOUDY    43  12  28 W23G35    29.72F
CODY           CLEAR     35  21  56 W17G23    29.82R WCI  25
YELLOWSTONE LA   N/A     20  17  88 VRB6      29.87F WCI  12
IDAHO FALLS    PTCLDY    31  27  85 SW18G29   29.97S WCI  19
SALMON         CLOUDY    32  28  86 N5        29.93R
BOISE          PTCLDY    33  27  78 CALM      30.04F
SPOKANE        DRZL/FOG  32  31  96 SW3       29.99S VSB 1
$$

REGIONAL REPORTS...ALBERTA

CITY           SKY/WX    TMP DP  RH WIND       PRES   REMARKS
EDMONTON       CLOUDY    25  19  80 N6        29.92R WCI  18
CALGARY        CLOUDY    27  25  93 N18       29.83R FOG     WCI  13
LETHBRIDGE     CLOUDY    30 N/A N/A SW5       29.82R
MEDICINE HAT   CLOUDY    32  30  93 NE6       29.84R WCI  26
MILK RIVER       N/A     27  25  93 S2          N/A
$$

REGIONAL REPORTS...SASKATCHEWAN

CITY           SKY/WX    TMP DP  RH WIND       PRES   REMARKS
SWIFT CURRENT  PTCLDY    27  27 100 NW5       29.82R
REGINA         CLOUDY    28  25  86 W5        29.84R
SASKATOON      CLOUDY    32  27  80 W7        29.87R WCI  26
CYPRESS HILLS    N/A     25  21  86 N6          N/A  WCI  18
VAL MARIE        N/A     28  27  93 N12         N/A  WCI  18
ROCKGLEN         N/A     27  25  93 N13         N/A  WCI  16
ASSINIBOIA       N/A     25  21  86 N12         N/A  WCI  14
$$




USA.gov is the U.S. government's official web portal to all federal, state and local government web resources and services.